,,Stat6,,Stat2,,Stat8,,Stat9,,Stat10,,Wind1,,Wind1,
time,status,PA1M_AVG,status,PR1M_SUM,status,RH1M_AVG,status,SR1M_AVG,status,TA1M_AVG,status,W1dAve1m,status,W1sAve1m,
2004-09-18, 00:00:00,VALID,919.276,VALID,0.2,VALID,100,VALID,0,VALID,19.7529,VALID,346,VALID,0.70206,
2004-09-18, 00:01:00,VALID,919.259,VALID,0,VALID,100,VALID,0.0169808,VALID,19.7693,VALID,344,VALID,0.363281,
2004-09-18, 00:02:00,VALID,919.243,VALID,0.2,VALID,100,VALID,0.0169808,VALID,19.7981,VALID,5,VALID,0.38101,
2004-09-18, 00:03:00,VALID,919.233,VALID,0,VALID,100,VALID,0,VALID,19.8239,VALID,62,VALID,0.792411,
2004-09-18, 00:04:00,VALID,919.214,VALID,0,VALID,100,VALID,-0.0169808,VALID,19.8239,VALID,64,VALID,1.68047,
2004-09-18, 00:05:00,VALID,919.195,VALID,0,VALID,100,VALID,0,VALID,19.7981,VALID,50,VALID,1.93341,
2004-09-18, 00:06:00,VALID,919.154,VALID,0,VALID,100,VALID,0,VALID,19.8043,VALID,31,VALID,1.70916,
2004-09-18, 00:07:00,VALID,919.118,VALID,0,VALID,100,VALID,0,VALID,19.8239,VALID,36,VALID,1.72057,
2004-09-18, 00:08:00,VALID,919.093,VALID,0,VALID,100,VALID,0,VALID,19.8336,VALID,12,VALID,1.57049,
2004-09-18, 00:09:00,VALID,919.088,VALID,0,VALID,100,VALID,0,VALID,19.8401,VALID,33,VALID,1.07146,
2004-09-18, 00:10:00,VALID,919.099,VALID,0,VALID,100,VALID,0,VALID,19.853,VALID,44,VALID,0.979651,
2004-09-18, 00:11:00,VALID,919.111,VALID,0,VALID,100,VALID,0,VALID,19.8592,VALID,58,VALID,1.13711,
2004-09-18, 00:12:00,VALID,919.107,VALID,0,VALID,100,VALID,0.0169808,VALID,19.8495,VALID,48,VALID,1.35249,
2004-09-18, 00:13:00,VALID,919.104,VALID,0,VALID,100,VALID,0,VALID,19.8532,VALID,52,VALID,1.00577,
2004-09-18, 00:14:00,VALID,919.088,VALID,0,VALID,100,VALID,0.0169808,VALID,19.8431,VALID,84,VALID,1.01563,
2004-09-18, 00:15:00,VALID,919.048,VALID,0,VALID,100,VALID,0,VALID,19.8202,VALID,51,VALID,1.04968,
2004-09-18, 00:16:00,VALID,919.034,VALID,0,VALID,100,VALID,0.0169808,VALID,19.8401,VALID,46,VALID,0.718928,
2004-09-18, 00:17:00,VALID,919.027,VALID,0,VALID,100,VALID,-0.0169808,VALID,19.8756,VALID,30,VALID,0.786156,
2004-09-18, 00:18:00,VALID,918.987,VALID,0.2,VALID,100,VALID,0,VALID,19.9042,VALID,26,VALID,0.59517,
2004-09-18, 00:19:00,VALID,918.965,VALID,0,VALID,100,VALID,0,VALID,19.8883,VALID,50,VALID,0.982376,
2004-09-18, 00:20:00,VALID,918.947,VALID,0,VALID,100,VALID,0,VALID,19.8649,VALID,60,VALID,1.27804,
2004-09-18, 00:21:00,VALID,918.931,VALID,0,VALID,100,VALID,0.0339617,VALID,19.8527,VALID,72,VALID,1.02813,
2004-09-18, 00:22:00,VALID,918.909,VALID,0,VALID,100,VALID,0,VALID,19.8428,VALID,87,VALID,1.13481,
2004-09-18, 00:23:00,VALID,918.912,VALID,0,VALID,100,VALID,0.0339617,VALID,19.8301,VALID,78,VALID,1.4157,
2004-09-18, 00:24:00,VALID,918.894,VALID,0,VALID,100,VALID,0.0169808,VALID,19.814,VALID,80,VALID,1.53729,
2004-09-18, 00:25:00,VALID,918.884,VALID,0,VALID,100,VALID,0,VALID,19.8172,VALID,72,VALID,1.57485,
2004-09-18, 00:26:00,VALID,918.86,VALID,0,VALID,100,VALID,-0.0169808,VALID,19.8041,VALID,91,VALID,1.12447,
2004-09-18, 00:27:00,VALID,918.836,VALID,0,VALID,100,VALID,0,VALID,19.8006,VALID,89,VALID,0.849653,
2004-09-18, 00:28:00,VALID,918.818,VALID,0,VALID,100,VALID,0,VALID,19.8075,VALID,72,VALID,1.08516,
2004-09-18, 00:29:00,VALID,918.794,VALID,0,VALID,100,VALID,0,VALID,19.8274,VALID,36,VALID,0.84654,
2004-09-18, 00:30:00,VALID,918.781,VALID,0,VALID,100,VALID,0,VALID,19.8272,VALID,59,VALID,0.844295,
2004-09-18, 00:31:00,VALID,918.775,VALID,0,VALID,100,VALID,-0.0169808,VALID,19.8041,VALID,76,VALID,1.01332,
2004-09-18, 00:32:00,VALID,918.754,VALID,0,VALID,100,VALID,0,VALID,19.769,VALID,66,VALID,1.17278,
2004-09-18, 00:33:00,VALID,918.753,VALID,0,VALID,100,VALID,0.0169808,VALID,19.7628,VALID,47,VALID,0.976563,
2004-09-18, 00:34:00,VALID,918.736,VALID,0,VALID,100,VALID,0,VALID,19.7489,VALID,58,VALID,0.529251,
2004-09-18, 00:35:00,VALID,918.71,VALID,0,VALID,100,VALID,-0.0169808,VALID,19.7395,VALID,60,VALID,0.0538194,
2004-09-18, 00:36:00,VALID,918.696,VALID,0,VALID,100,VALID,0,VALID,19.7559,VALID,60,VALID,0,
2004-09-18, 00:37:00,VALID,918.661,VALID,0,VALID,100,VALID,-0.0169808,VALID,19.7556,VALID,41,VALID,0.0898438,
2004-09-18, 00:38:00,VALID,918.64,VALID,0,VALID,100,VALID,0.0169808,VALID,19.7427,VALID,243,VALID,0.563227,
2004-09-18, 00:39:00,VALID,918.609,VALID,0,VALID,100,VALID,0.0169808,VALID,19.7166,VALID,236,VALID,0.759896,
2004-09-18, 00:40:00,VALID,918.576,VALID,0,VALID,100,VALID,0,VALID,19.7077,VALID,236,VALID,1.10069,
2004-09-18, 00:41:00,VALID,918.532,VALID,0,VALID,100,VALID,0,VALID,19.7107,VALID,252,VALID,0.784961,
2004-09-18, 00:42:00,VALID,918.518,VALID,0,VALID,100,VALID,0,VALID,19.7395,VALID,255,VALID,0.788368,
2004-09-18, 00:43:00,VALID,918.473,VALID,0,VALID,100,VALID,0,VALID,19.73,VALID,246,VALID,0.932986,
2004-09-18, 00:44:00,VALID,918.449,VALID,0,VALID,100,VALID,0.0169808,VALID,19.743,VALID,218,VALID,0.967226,
2004-09-18, 00:45:00,VALID,918.41,VALID,0,VALID,100,VALID,-0.0339617,VALID,19.7367,VALID,205,VALID,0.983073,
2004-09-18, 00:46:00,VALID,918.39,VALID,0,VALID,100,VALID,-0.0509425,VALID,19.7271,VALID,203,VALID,0.657885,
2004-09-18, 00:47:00,VALID,918.366,VALID,0,VALID,100,VALID,-0.0169808,VALID,19.7464,VALID,195,VALID,0.620617,
2004-09-18, 00:48:00,VALID,918.346,VALID,0,VALID,100,VALID,0,VALID,19.7233,VALID,209,VALID,1.21145,
2004-09-18, 00:49:00,VALID,918.301,VALID,0,VALID,100,VALID,0,VALID,19.7141,VALID,221,VALID,1.12287,
2004-09-18, 00:50:00,VALID,918.301,VALID,0,VALID,100,VALID,-0.0339617,VALID,19.7074,VALID,227,VALID,1.06395,
2004-09-18, 00:51:00,VALID,918.282,VALID,0,VALID,100,VALID,0,VALID,19.6943,VALID,185,VALID,1.22526,
2004-09-18, 00:52:00,VALID,918.278,VALID,0,VALID,100,VALID,-0.0169808,VALID,19.6848,VALID,185,VALID,1.33854,
2004-09-18, 00:53:00,VALID,918.267,VALID,0,VALID,100,VALID,-0.0169808,VALID,19.6622,VALID,190,VALID,1.23933,
2004-09-18, 00:54:00,VALID,918.26,VALID,0,VALID,100,VALID,0,VALID,19.6493,VALID,183,VALID,1.13045,
2004-09-18, 00:55:00,VALID,918.257,VALID,0,VALID,100,VALID,0,VALID,19.6364,VALID,170,VALID,1.18078,
2004-09-18, 00:56:00,VALID,918.239,VALID,0,VALID,100,VALID,0,VALID,19.6265,VALID,172,VALID,1.11755,
2004-09-18, 00:57:00,VALID,918.231,VALID,0,VALID,100,VALID,0,VALID,19.6138,VALID,174,VALID,1.21484,
2004-09-18, 00:58:00,VALID,918.221,VALID,0,VALID,100,VALID,0,VALID,19.6073,VALID,175,VALID,1.05139,
2004-09-18, 00:59:00,VALID,918.204,VALID,0,VALID,100,VALID,-0.0169808,VALID,19.5917,VALID,169,VALID,1.61374,
2004-09-18, 01:00:00,VALID,918.196,VALID,0,VALID,100,VALID,0.0169808,VALID,19.5686,VALID,162,VALID,0.93378,
2004-09-18, 01:01:00,VALID,918.173,VALID,0,VALID,100,VALID,0,VALID,19.5815,VALID,162,VALID,1.13981,
2004-09-18, 01:02:00,VALID,918.154,VALID,0,VALID,100,VALID,0,VALID,19.5624,VALID,166,VALID,1.63735,
2004-09-18, 01:03:00,VALID,918.145,VALID,0,VALID,100,VALID,-0.0169808,VALID,19.5105,VALID,158,VALID,1.57366,
2004-09-18, 01:04:00,VALID,918.116,VALID,0,VALID,100,VALID,-0.0339617,VALID,19.5045,VALID,156,VALID,2.16495,
2004-09-18, 01:05:00,VALID,918.099,VALID,0,VALID,100,VALID,0,VALID,19.4623,VALID,156,VALID,1.37667,
2004-09-18, 01:06:00,VALID,918.083,VALID,0,VALID,100,VALID,0,VALID,19.4461,VALID,161,VALID,1.43641,
2004-09-18, 01:07:00,VALID,918.079,VALID,0,VALID,100,VALID,0,VALID,19.4432,VALID,155,VALID,1.79874,
2004-09-18, 01:08:00,VALID,918.071,VALID,0,VALID,100,VALID,0,VALID,19.4265,VALID,140,VALID,1.68623,
2004-09-18, 01:09:00,VALID,918.051,VALID,0,VALID,100,VALID,0,VALID,19.4201,VALID,123,VALID,1.35975,
2004-09-18, 01:10:00,VALID,918.052,VALID,0,VALID,100,VALID,0,VALID,19.4106,VALID,126,VALID,1.19766,
2004-09-18, 01:11:00,VALID,918.029,VALID,0,VALID,100,VALID,-0.0169808,VALID,19.4042,VALID,146,VALID,1.2128,
2004-09-18, 01:12:00,VALID,917.993,VALID,0,VALID,100,VALID,-0.0339617,VALID,19.4109,VALID,148,VALID,1.78398,
2004-09-18, 01:13:00,VALID,917.979,VALID,0,VALID,100,VALID,-0.0169808,VALID,19.385,VALID,159,VALID,1.53087,
2004-09-18, 01:14:00,VALID,917.949,VALID,0,VALID,100,VALID,0,VALID,19.3883,VALID,156,VALID,1.16479,
2004-09-18, 01:15:00,VALID,917.944,VALID,0,VALID,100,VALID,-0.0339617,VALID,19.398,VALID,149,VALID,1.38754,
2004-09-18, 01:16:00,VALID,917.92,VALID,0,VALID,100,VALID,-0.0169808,VALID,19.4074,VALID,151,VALID,1.18038,
2004-09-18, 01:17:00,VALID,917.906,VALID,0,VALID,100,VALID,-0.0339617,VALID,19.4211,VALID,143,VALID,1.30596,
2004-09-18, 01:18:00,VALID,917.889,VALID,0,VALID,100,VALID,-0.0509425,VALID,19.4176,VALID,147,VALID,1.52017,
2004-09-18, 01:19:00,VALID,917.883,VALID,0,VALID,100,VALID,-0.0169808,VALID,19.4141,VALID,159,VALID,1.52871,
2004-09-18, 01:20:00,VALID,917.874,VALID,0,VALID,100,VALID,0,VALID,19.4144,VALID,157,VALID,1.93502,
2004-09-18, 01:21:00,VALID,917.88,VALID,0,VALID,100,VALID,-0.0509425,VALID,19.431,VALID,154,VALID,1.66629,
2004-09-18, 01:22:00,VALID,917.884,VALID,0,VALID,100,VALID,-0.0679233,VALID,19.424,VALID,152,VALID,1.43027,
2004-09-18, 01:23:00,VALID,917.877,VALID,0,VALID,100,VALID,0,VALID,19.4337,VALID,162,VALID,1.35035,
2004-09-18, 01:24:00,VALID,917.879,VALID,0,VALID,100,VALID,-0.0339617,VALID,19.424,VALID,150,VALID,1.47526,
2004-09-18, 01:25:00,VALID,917.885,VALID,0,VALID,100,VALID,-0.0169808,VALID,19.4407,VALID,155,VALID,1.47988,
2004-09-18, 01:26:00,VALID,917.872,VALID,0,VALID,100,VALID,-0.0849042,VALID,19.4287,VALID,142,VALID,2.27834,
2004-09-18, 01:27:00,VALID,917.847,VALID,0,VALID,100,VALID,-0.101885,VALID,19.4186,VALID,145,VALID,1.93716,
2004-09-18, 01:28:00,VALID,917.826,VALID,0,VALID,100,VALID,-0.0679233,VALID,19.4349,VALID,162,VALID,0.954578,
2004-09-18, 01:29:00,VALID,917.81,VALID,0,VALID,100,VALID,-0.101885,VALID,19.4317,VALID,137,VALID,1.56193,
2004-09-18, 01:30:00,VALID,917.798,VALID,0,VALID,100,VALID,-0.118866,VALID,19.4253,VALID,146,VALID,1.86777,
2004-09-18, 01:31:00,VALID,917.796,VALID,0,VALID,100,VALID,-0.101885,VALID,19.4317,VALID,157,VALID,1.0613,
2004-09-18, 01:32:00,VALID,917.779,VALID,0,VALID,100,VALID,-0.101885,VALID,19.4354,VALID,155,VALID,1.41597,
2004-09-18, 01:33:00,VALID,917.778,VALID,0,VALID,100,VALID,-0.101885,VALID,19.4384,VALID,152,VALID,1.08315,
2004-09-18, 01:34:00,VALID,917.751,VALID,0,VALID,100,VALID,-0.101885,VALID,19.4317,VALID,159,VALID,1.21493,
2004-09-18, 01:35:00,VALID,917.74,VALID,0,VALID,100,VALID,-0.101885,VALID,19.4282,VALID,163,VALID,1.30435,
2004-09-18, 01:36:00,VALID,917.736,VALID,0,VALID,100,VALID,-0.0849042,VALID,19.429,VALID,163,VALID,1.14258,
2004-09-18, 01:37:00,VALID,917.722,VALID,0,VALID,100,VALID,-0.0849042,VALID,19.4086,VALID,154,VALID,1.05061,
2004-09-18, 01:38:00,VALID,917.71,VALID,0,VALID,100,VALID,-0.101885,VALID,19.4287,VALID,151,VALID,0.802951,
2004-09-18, 01:39:00,VALID,917.71,VALID,0,VALID,100,VALID,-0.0849042,VALID,19.4218,VALID,156,VALID,0.942454,
2004-09-18, 01:40:00,VALID,917.694,VALID,0,VALID,100,VALID,-0.0849042,VALID,19.425,VALID,155,VALID,1.30525,
2004-09-18, 01:41:00,VALID,917.699,VALID,0,VALID,100,VALID,0,VALID,19.4168,VALID,156,VALID,1.34128,
2004-09-18, 01:42:00,VALID,917.696,VALID,0,VALID,100,VALID,0,VALID,19.4141,VALID,159,VALID,1.14531,
2004-09-18, 01:43:00,VALID,917.691,VALID,0,VALID,100,VALID,0.0169808,VALID,19.4106,VALID,158,VALID,0.978711,
2004-09-18, 01:44:00,VALID,917.715,VALID,0,VALID,100,VALID,0.0169808,VALID,19.4139,VALID,143,VALID,1.02051,
2004-09-18, 01:45:00,VALID,917.719,VALID,0,VALID,100,VALID,0,VALID,19.4208,VALID,140,VALID,0.655419,
2004-09-18, 01:46:00,VALID,917.721,VALID,0,VALID,100,VALID,0,VALID,19.4171,VALID,128,VALID,0.65904,
2004-09-18, 01:47:00,VALID,917.725,VALID,0,VALID,100,VALID,0,VALID,19.4203,VALID,149,VALID,0.733041,
2004-09-18, 01:48:00,VALID,917.721,VALID,0,VALID,100,VALID,0,VALID,19.4139,VALID,141,VALID,0.386052,
2004-09-18, 01:49:00,VALID,917.726,VALID,0,VALID,100,VALID,0.0169808,VALID,19.4168,VALID,135,VALID,0.639323,
2004-09-18, 01:50:00,VALID,917.723,VALID,0,VALID,100,VALID,0.0169808,VALID,19.4136,VALID,132,VALID,0.711868,
2004-09-18, 01:51:00,VALID,917.736,VALID,0,VALID,100,VALID,0,VALID,19.4206,VALID,117,VALID,0.813058,
2004-09-18, 01:52:00,VALID,917.735,VALID,0,VALID,100,VALID,0.0169808,VALID,19.4074,VALID,95,VALID,0.547266,
2004-09-18, 01:53:00,VALID,917.731,VALID,0,VALID,100,VALID,0,VALID,19.4114,VALID,32,VALID,0.757626,
2004-09-18, 01:54:00,VALID,917.726,VALID,0,VALID,100,VALID,0,VALID,19.4235,VALID,50,VALID,0.680575,
2004-09-18, 01:55:00,VALID,917.745,VALID,0,VALID,100,VALID,0,VALID,19.43,VALID,51,VALID,0.354911,
2004-09-18, 01:56:00,VALID,917.741,VALID,0,VALID,100,VALID,0.0339617,VALID,19.4563,VALID,51,VALID,0.0857558,
2004-09-18, 01:57:00,VALID,917.725,VALID,0,VALID,100,VALID,0.0339617,VALID,19.4461,VALID,106,VALID,0.368902,
2004-09-18, 01:58:00,VALID,917.702,VALID,0,VALID,100,VALID,0.0339617,VALID,19.4469,VALID,135,VALID,0.444222,
2004-09-18, 01:59:00,VALID,917.683,VALID,0,VALID,100,VALID,0.0169808,VALID,19.4139,VALID,118,VALID,0.934028,
2004-09-18, 02:00:00,VALID,917.672,VALID,0,VALID,100,VALID,0.0339617,VALID,19.391,VALID,122,VALID,0.679688,
2004-09-18, 02:01:00,VALID,917.667,VALID,0,VALID,100,VALID,0.0339617,VALID,19.391,VALID,137,VALID,0.337652,
2004-09-18, 02:02:00,VALID,917.672,VALID,0,VALID,100,VALID,0.0169808,VALID,19.3947,VALID,111,VALID,0.389453,
2004-09-18, 02:03:00,VALID,917.656,VALID,0,VALID,100,VALID,0,VALID,19.3687,VALID,63,VALID,0.791193,
2004-09-18, 02:04:00,VALID,917.651,VALID,0,VALID,100,VALID,0.0509425,VALID,19.3719,VALID,82,VALID,0.689406,
2004-09-18, 02:05:00,VALID,917.644,VALID,0,VALID,100,VALID,0.0339617,VALID,19.3659,VALID,105,VALID,0.853981,
2004-09-18, 02:06:00,VALID,917.625,VALID,0,VALID,100,VALID,0,VALID,19.3523,VALID,123,VALID,0.895117,
2004-09-18, 02:07:00,VALID,917.606,VALID,0,VALID,100,VALID,0.101885,VALID,19.359,VALID,118,VALID,0.494474,
2004-09-18, 02:08:00,VALID,917.588,VALID,0,VALID,100,VALID,0,VALID,19.3624,VALID,126,VALID,0.833079,
2004-09-18, 02:09:00,VALID,917.562,VALID,0,VALID,100,VALID,0.0509425,VALID,19.3394,VALID,84,VALID,0.601902,
2004-09-18, 02:10:00,VALID,917.546,VALID,0,VALID,100,VALID,0.0339617,VALID,19.3366,VALID,73,VALID,0.901736,
2004-09-18, 02:11:00,VALID,917.524,VALID,0,VALID,100,VALID,-0.0509425,VALID,19.3542,VALID,97,VALID,0.771949,
2004-09-18, 02:12:00,VALID,917.501,VALID,0,VALID,100,VALID,-0.0679233,VALID,19.3475,VALID,101,VALID,1.07187,
2004-09-18, 02:13:00,VALID,917.48,VALID,0,VALID,100,VALID,-0.101885,VALID,19.3411,VALID,115,VALID,0.856517,
2004-09-18, 02:14:00,VALID,917.456,VALID,0,VALID,100,VALID,-0.0679233,VALID,19.3376,VALID,107,VALID,0.783794,
2004-09-18, 02:15:00,VALID,917.446,VALID,0,VALID,100,VALID,-0.0679233,VALID,19.3314,VALID,124,VALID,1.45451,
2004-09-18, 02:16:00,VALID,917.437,VALID,0,VALID,100,VALID,-0.0849042,VALID,19.3353,VALID,141,VALID,1.21949,
2004-09-18, 02:17:00,VALID,917.42,VALID,0,VALID,100,VALID,-0.0849042,VALID,19.3383,VALID,142,VALID,1.09059,
2004-09-18, 02:18:00,VALID,917.409,VALID,0,VALID,100,VALID,-0.0849042,VALID,19.3416,VALID,138,VALID,0.655208,
2004-09-18, 02:19:00,VALID,917.408,VALID,0,VALID,100,VALID,-0.101885,VALID,19.3448,VALID,133,VALID,0.814704,
2004-09-18, 02:20:00,VALID,917.404,VALID,0,VALID,100,VALID,-0.0849042,VALID,19.3281,VALID,130,VALID,0.637649,
2004-09-18, 02:21:00,VALID,917.386,VALID,0,VALID,100,VALID,-0.0849042,VALID,19.3284,VALID,127,VALID,0.628374,
2004-09-18, 02:22:00,VALID,917.394,VALID,0,VALID,100,VALID,-0.101885,VALID,19.3182,VALID,126,VALID,0.572266,
2004-09-18, 02:23:00,VALID,917.405,VALID,0,VALID,100,VALID,-0.0679233,VALID,19.3316,VALID,119,VALID,0.638086,
2004-09-18, 02:24:00,VALID,917.416,VALID,0,VALID,100,VALID,-0.101885,VALID,19.3155,VALID,112,VALID,0.623471,
2004-09-18, 02:25:00,VALID,917.421,VALID,0,VALID,100,VALID,-0.0849042,VALID,19.3222,VALID,111,VALID,0.0816592,
2004-09-18, 02:26:00,VALID,917.414,VALID,0,VALID,100,VALID,-0.0679233,VALID,19.3321,VALID,112,VALID,0.101389,
2004-09-18, 02:27:00,VALID,917.417,VALID,0,VALID,100,VALID,-0.101885,VALID,19.312,VALID,134,VALID,0.21224,
2004-09-18, 02:28:00,VALID,917.409,VALID,0,VALID,100,VALID,-0.101885,VALID,19.3095,VALID,134,VALID,0.0592296,
2004-09-18, 02:29:00,VALID,917.388,VALID,0,VALID,100,VALID,-0.0849042,VALID,19.3229,VALID,134,VALID,0.0182292,
2004-09-18, 02:30:00,VALID,917.352,VALID,0,VALID,100,VALID,-0.0849042,VALID,19.309,VALID,134,VALID,0.18859,
2004-09-18, 02:31:00,VALID,917.324,VALID,0,VALID,100,VALID,-0.118866,VALID,19.2993,VALID,143,VALID,0.308685,
2004-09-18, 02:32:00,VALID,917.291,VALID,0,VALID,100,VALID,-0.101885,VALID,19.3026,VALID,145,VALID,0.145198,
2004-09-18, 02:33:00,VALID,917.258,VALID,0,VALID,100,VALID,-0.101885,VALID,19.3093,VALID,145,VALID,0,
2004-09-18, 02:34:00,VALID,917.228,VALID,0,VALID,100,VALID,-0.0509425,VALID,19.3026,VALID,151,VALID,0.191497,
2004-09-18, 02:35:00,VALID,917.199,VALID,0,VALID,100,VALID,-0.0679233,VALID,19.3026,VALID,157,VALID,0.170632,
2004-09-18, 02:36:00,VALID,917.173,VALID,0,VALID,100,VALID,-0.0679233,VALID,19.306,VALID,177,VALID,0.324491,
2004-09-18, 02:37:00,VALID,917.158,VALID,0,VALID,100,VALID,-0.0849042,VALID,19.316,VALID,193,VALID,0.548735,
2004-09-18, 02:38:00,VALID,917.169,VALID,0,VALID,100,VALID,-0.0849042,VALID,19.313,VALID,181,VALID,0.337028,
2004-09-18, 02:39:00,VALID,917.164,VALID,0,VALID,100,VALID,-0.101885,VALID,19.2968,VALID,214,VALID,0.367569,
2004-09-18, 02:40:00,VALID,917.172,VALID,0,VALID,100,VALID,-0.0849042,VALID,19.274,VALID,216,VALID,0.498365,
2004-09-18, 02:41:00,VALID,917.179,VALID,0,VALID,100,VALID,-0.0849042,VALID,19.238,VALID,205,VALID,0.542668,
2004-09-18, 02:42:00,VALID,917.181,VALID,0,VALID,100,VALID,-0.0679233,VALID,19.2184,VALID,208,VALID,0.105469,
2004-09-18, 02:43:00,VALID,917.181,VALID,0,VALID,100,VALID,-0.101885,VALID,19.2154,VALID,205,VALID,0.120164,
2004-09-18, 02:44:00,VALID,917.193,VALID,0,VALID,100,VALID,-0.0849042,VALID,19.2062,VALID,199,VALID,0.432106,
2004-09-18, 02:45:00,VALID,917.184,VALID,0,VALID,100,VALID,-0.101885,VALID,19.1955,VALID,199,VALID,0.357469,
2004-09-18, 02:46:00,VALID,917.18,VALID,0,VALID,100,VALID,-0.101885,VALID,19.1898,VALID,203,VALID,0.323509,
2004-09-18, 02:47:00,VALID,917.182,VALID,0,VALID,100,VALID,-0.101885,VALID,19.1933,VALID,209,VALID,0.252046,
2004-09-18, 02:48:00,VALID,917.178,VALID,0,VALID,100,VALID,-0.101885,VALID,19.1863,VALID,209,VALID,0.0145833,
2004-09-18, 02:49:00,VALID,917.172,VALID,0,VALID,100,VALID,-0.101885,VALID,19.1903,VALID,200,VALID,0.315358,
2004-09-18, 02:50:00,VALID,917.177,VALID,0,VALID,100,VALID,-0.101885,VALID,19.1801,VALID,186,VALID,0.0498047,
2004-09-18, 02:51:00,VALID,917.159,VALID,0,VALID,100,VALID,-0.101885,VALID,19.1543,VALID,186,VALID,0,
2004-09-18, 02:52:00,VALID,917.167,VALID,0,VALID,100,VALID,-0.101885,VALID,19.161,VALID,186,VALID,0,
2004-09-18, 02:53:00,VALID,917.168,VALID,0,VALID,100,VALID,-0.101885,VALID,19.1548,VALID,154,VALID,0.142624,
2004-09-18, 02:54:00,VALID,917.174,VALID,0,VALID,100,VALID,-0.0509425,VALID,19.1414,VALID,42,VALID,0.490625,
2004-09-18, 02:55:00,VALID,917.18,VALID,0,VALID,100,VALID,0,VALID,19.1109,VALID,41,VALID,0.483232,
2004-09-18, 02:56:00,VALID,917.183,VALID,0,VALID,100,VALID,-0.0849042,VALID,19.1026,VALID,40,VALID,0.509766,
2004-09-18, 02:57:00,VALID,917.186,VALID,0,VALID,100,VALID,-0.0849042,VALID,19.0966,VALID,31,VALID,0.494851,
2004-09-18, 02:58:00,VALID,917.188,VALID,0,VALID,100,VALID,-0.101885,VALID,19.0641,VALID,27,VALID,0.309593,
2004-09-18, 02:59:00,VALID,917.171,VALID,0,VALID,100,VALID,-0.0849042,VALID,19.0636,VALID,27,VALID,0.44029,
2004-09-18, 03:00:00,VALID,917.164,VALID,0,VALID,100,VALID,-0.0849042,VALID,19.0641,VALID,26,VALID,0.158381,
2004-09-18, 03:01:00,VALID,917.165,VALID,0,VALID,100,VALID,-0.0849042,VALID,19.0577,VALID,27,VALID,0.0682165,
2004-09-18, 03:02:00,VALID,917.171,VALID,0,VALID,100,VALID,-0.0849042,VALID,19.0355,VALID,27,VALID,0.248512,
2004-09-18, 03:03:00,VALID,917.176,VALID,0,VALID,100,VALID,-0.101885,VALID,19.0221,VALID,10,VALID,0.305618,
2004-09-18, 03:04:00,VALID,917.169,VALID,0,VALID,100,VALID,-0.101885,VALID,19.0284,VALID,7,VALID,0.109003,
2004-09-18, 03:05:00,VALID,917.172,VALID,0,VALID,100,VALID,-0.0679233,VALID,19.0507,VALID,7,VALID,0.0597826,
2004-09-18, 03:06:00,VALID,917.18,VALID,0,VALID,100,VALID,-0.0849042,VALID,19.0743,VALID,7,VALID,0,
2004-09-18, 03:07:00,VALID,917.191,VALID,0,VALID,100,VALID,-0.0849042,VALID,19.0803,VALID,7,VALID,0.0012429,
2004-09-18, 03:08:00,VALID,917.208,VALID,0,VALID,100,VALID,-0.101885,VALID,19.0969,VALID,7,VALID,0.106712,
2004-09-18, 03:09:00,VALID,917.22,VALID,0,VALID,100,VALID,-0.101885,VALID,19.1163,VALID,7,VALID,0.18099,
2004-09-18, 03:10:00,VALID,917.243,VALID,0,VALID,100,VALID,-0.0679233,VALID,19.1354,VALID,7,VALID,0.0708705,
2004-09-18, 03:11:00,VALID,917.258,VALID,0,VALID,100,VALID,0,VALID,19.1538,VALID,7,VALID,0.140115,
2004-09-18, 03:12:00,VALID,917.26,VALID,0,VALID,100,VALID,0.0509425,VALID,19.1531,VALID,7,VALID,0.338118,
2004-09-18, 03:13:00,VALID,917.268,VALID,0,VALID,100,VALID,0.0169808,VALID,19.1628,VALID,7,VALID,0.449751,
2004-09-18, 03:14:00,VALID,917.256,VALID,0,VALID,100,VALID,0.0169808,VALID,19.1891,VALID,7,VALID,0.445494,
2004-09-18, 03:15:00,VALID,917.244,VALID,0,VALID,100,VALID,0,VALID,19.1888,VALID,7,VALID,0.600497,
2004-09-18, 03:16:00,VALID,917.234,VALID,0,VALID,100,VALID,0,VALID,19.1953,VALID,13,VALID,0.645064,
2004-09-18, 03:17:00,VALID,917.218,VALID,0,VALID,100,VALID,0.0169808,VALID,19.2315,VALID,31,VALID,0.520898,
2004-09-18, 03:18:00,VALID,917.201,VALID,0,VALID,100,VALID,0.0339617,VALID,19.2469,VALID,31,VALID,0.281631,
2004-09-18, 03:19:00,VALID,917.17,VALID,0,VALID,100,VALID,0,VALID,19.2666,VALID,31,VALID,0.118304,
2004-09-18, 03:20:00,VALID,917.143,VALID,0,VALID,100,VALID,0.0169808,VALID,19.2859,VALID,31,VALID,0.0777439,
2004-09-18, 03:21:00,VALID,917.11,VALID,0,VALID,100,VALID,0.0509425,VALID,19.2921,VALID,31,VALID,0.0599564,
2004-09-18, 03:22:00,VALID,917.084,VALID,0,VALID,100,VALID,0.0169808,VALID,19.2924,VALID,31,VALID,0.59702,
2004-09-18, 03:23:00,VALID,917.067,VALID,0,VALID,100,VALID,0.0509425,VALID,19.2564,VALID,30,VALID,0.461868,
2004-09-18, 03:24:00,VALID,917.06,VALID,0,VALID,100,VALID,0.0169808,VALID,19.2566,VALID,30,VALID,0.270894,
2004-09-18, 03:25:00,VALID,917.055,VALID,0,VALID,100,VALID,0.0169808,VALID,19.2435,VALID,30,VALID,0.486471,
2004-09-18, 03:26:00,VALID,917.041,VALID,0,VALID,100,VALID,0.0339617,VALID,19.2114,VALID,30,VALID,0.454215,
2004-09-18, 03:27:00,VALID,917.034,VALID,0,VALID,100,VALID,0,VALID,19.1988,VALID,30,VALID,0.236607,
2004-09-18, 03:28:00,VALID,917.023,VALID,0,VALID,100,VALID,0.0339617,VALID,19.1695,VALID,30,VALID,0.18418,
2004-09-18, 03:29:00,VALID,917.031,VALID,0,VALID,100,VALID,0,VALID,19.1595,VALID,27,VALID,0.313643,
2004-09-18, 03:30:00,VALID,917.027,VALID,0,VALID,100,VALID,0.0339617,VALID,19.163,VALID,26,VALID,0.0338542,
2004-09-18, 03:31:00,VALID,917.035,VALID,0,VALID,100,VALID,0.0169808,VALID,19.166,VALID,26,VALID,0.0642578,
2004-09-18, 03:32:00,VALID,917.04,VALID,0,VALID,100,VALID,0,VALID,19.1759,VALID,26,VALID,0.0497332,
2004-09-18, 03:33:00,VALID,917.024,VALID,0,VALID,100,VALID,0,VALID,19.2017,VALID,26,VALID,0.140024,
2004-09-18, 03:34:00,VALID,917.02,VALID,0,VALID,100,VALID,0.0169808,VALID,19.2082,VALID,26,VALID,0.0408794,
2004-09-18, 03:35:00,VALID,917.009,VALID,0,VALID,100,VALID,0.0169808,VALID,19.1953,VALID,26,VALID,0.130149,
2004-09-18, 03:36:00,VALID,917,VALID,0,VALID,100,VALID,0.0339617,VALID,19.2052,VALID,26,VALID,0.0920351,
2004-09-18, 03:37:00,VALID,916.985,VALID,0,VALID,100,VALID,0,VALID,19.2276,VALID,26,VALID,0.053267,
2004-09-18, 03:38:00,VALID,916.976,VALID,0,VALID,100,VALID,0.0339617,VALID,19.2176,VALID,26,VALID,0,
2004-09-18, 03:39:00,VALID,916.968,VALID,0,VALID,100,VALID,0.0169808,VALID,19.2308,VALID,26,VALID,0.053267,
2004-09-18, 03:40:00,VALID,916.953,VALID,0,VALID,100,VALID,0,VALID,19.2313,VALID,14,VALID,0.389844,
2004-09-18, 03:41:00,VALID,916.956,VALID,0,VALID,100,VALID,0,VALID,19.205,VALID,4,VALID,0.379112,
2004-09-18, 03:42:00,VALID,916.959,VALID,0,VALID,100,VALID,0,VALID,19.1923,VALID,358,VALID,0.313542,